NOAA 16 DEB, 41422

Orbit data source: Space-Track

NOAA 16 DEB, 41422 is space debris in SSO originally from a launch on Thu, 21 Sep 2000 UTC launched from the Air Force Western Test Range (AFWTR). Debris objects in space refer to the collection of defunct objects orbiting the Earth. Examples of debris include non-operational satellites, rocket bodies, and fragments generated from explosions, collisions, or faulty payload assembly.

Loading next visibility...
Identifier
41422, 2000-055LB
Orbit
SSO
Country
Flag of USUS
Related business
Manufacturer
Unknown
Mission
Spacecraft
Bus & Motor
Unknown
Mass
Unknown
Launch date (UTC)
2000-09-21 (25 years ago)
Launch vehicle
Unknown
Launch site
Air Force Western Test Range (AFWTR)
Object type
Payload
Rocket body
Debris
Shape & HBR
Unknown
Radar Cross Section
Small (<0.1 m²)

Expand to show TLE details & history
Last TLE update: 2 days ago

TLE from 2 days ago
0 NOAA 16 DEB
1 41422U 00055LB  25242.42580513  .00004929  00000-0  21212-2 0  9990
2 41422  98.7261 316.5266 0012795 304.3694  55.6275 14.25013260492762
Epoch: 2025-08-30T10:13Z
TLE epoch observation values (Epoch: 2025-08-30T10:13:09.563Z)
Latitude
0.00005°
Longitude
-175.62353°
Altitude
806.184 km
Speed
7.453 km/s
True Right ascension
21h 06m 06s
True Declination
0° 00' 00"
Sunlit
Object was in full shadow at epoch
Visualization orbit readout
Latitude
Unknown
Longitude
Unknown
Altitude
Unknown
Speed
Unknown
Apparent Right ascension
Unknown
Apparent Declination
Unknown
Sunlit
N/A
Visualization observer readout
Local Sidereal Time
13:54:14
Azimuth
Unknown
Elevation
Unknown
Doppler factor
Unknown
Orbital elements
Apogee altitude
814.792 km
Perigee altitude
796.409 km
Semi-major axis
7,183.738 km
Eccentricity
0.00128
Inclination
98.7261°
RAAN
316.5266°
Arg. of periapsis
304.3694°
True anomaly
55.74863°
Mean anomaly
55.6275°
Eccentric anomaly
55.68805°
Mean motion
3.56465 °/min
Orbital period
100.99 mins
BSTAR
0.0021212
Loading maneuver chart data...
Computing Atmospheric mass density...
Loading historical data...
Loading historical data...
Loading historical data...
Loading historical data...
Loading historical data...
Loading historical data...
Loading historical data...

Documentation

Showing up to 5 results
|